Home > Weather > Wiesbaden > Past weeks

Flag for Germany Past Weather in Wiesbaden, Hesse, Germany — Yesterday and Last 2 Weeks

Now
64 °F

Partly sunny.


Feels Like: 64 °F
Forecast: 52 / 69 °F
Wind: 10 mph from West

Location: Wiesbaden Airport

Current Time: Jun 26, 2016 at 9:15:57 PM

Latest Report: Jun 26, 2016 at 8:58 PM


Visibility: N/A

Pressure: 30.07 "Hg

Humidity: 46%

Dew Point: 43 °F

Location of WiesbadenLocation

Past Weather in Wiesbaden — Graph

°F

Wiesbaden Temperature Yesterday

Maximum temperature yesterday: 72 °F (at 1:02 PM)
Minimum temperature yesterday: 58 °F (at 9:58 PM)
Average temperature yesterday: 66 °F

High & Low Weather Summary for the Past Weeks

 TemperatureHumidityPressure
High90 °F (Jun 23, 3:58 PM)94% (Jun 12, 4:03 AM)30.27 "Hg (Jun 12, 4:03 AM)
Low46 °F (Jun 20, 4:58 AM)34% (Jun 26, 5:58 PM)29.51 "Hg (Jun 14, 3:58 PM)
Average63 °F76%29.91 "Hg
* Reported Jun 11 7:58 PM — Jun 26 7:58 PM, Wiesbaden, Weather by CustomWeather, © 2016

Note: Actual official high and low records may vary slightly from our data, if they occured in-between our weather recording intervals... More about our weather records

Advertising

Wiesbaden Weather History for the Previous 24 Hours

Scroll right to see more
 ConditionsComfort  
Time TempWeatherWind HumidityBarometerVisibility
7:58 PM
Sun, Jun 26
65 °FPartly sunny.5 mph57%30.06 "HgN/A
6:58 PM70 °FMostly cloudy.12 mph43%30.05 "HgN/A
5:58 PM72 °FPartly sunny.10 mph34%30.05 "HgN/A
4:58 PM71 °FSunny.10 mph40%30.05 "HgN/A
3:58 PM71 °FPartly sunny.6 mph39%30.06 "HgN/A
2:58 PM70 °FPartly sunny.12 mph41%30.06 "HgN/A
1:58 PM67 °FOvercast.12 mph47%30.08 "HgN/A
12:58 PM64 °FOvercast.7 mph52%30.09 "HgN/A
11:58 AM66 °FBroken clouds.8 mph49%30.09 "HgN/A
10:58 AM63 °FBroken clouds.6 mph59%30.09 "HgN/A
9:58 AM63 °FPartly sunny.5 mph68%30.10 "HgN/A
8:58 AM59 °FScattered clouds.2 mph73%30.10 "HgN/A
7:58 AM57 °FBroken clouds.No wind82%30.09 "HgN/A
6:58 AM54 °FScattered clouds.1 mph87%30.08 "HgN/A
5:58 AM52 °FClear.No wind88%30.07 "HgN/A
4:58 AM53 °FPassing clouds.No wind89%30.07 "HgN/A
3:58 AM54 °FPassing clouds.No wind88%30.07 "HgN/A
2:58 AM54 °FClear.No wind88%30.06 "HgN/A
1:58 AM54 °FClear.5 mph86%30.07 "HgN/A
12:58 AM55 °FClear.2 mph82%30.07 "HgN/A
11:58 PM
Sat, Jun 25
59 °FOvercast.5 mph77%30.08 "HgN/A
10:58 PM59 °FOvercast.5 mph77%30.06 "HgN/A
9:58 PM58 °FPassing clouds.5 mph80%30.04 "HgN/A
9:04 PM61 °FCloudy.12 mph72%30.02 "HgN/A
Weather by CustomWeather, © 2016

See weather overviewHow to use our weather pages